This demonstration page uses our WeatherBlox Daily Observations layout. Learn more.

Left ArrowRight Arrow

38.20091, -84.87328

Hourly Observations for February 2, 2018

Temp ( °F °C ) Dew Point ( °F °C ) Humidity (%) Winds ( mph kmh ) Pressure ( in mb ) Visibility ( mi km ) Precip ( " mm )
12:53 am 00:53 Cloudy 22 -5.6 12 -11.1 66 66 NW 9 15 30.31 1026 10 16 0.00 0.00
1:53 am 01:53 Cloudy 22 -5.6 12 -11.1 66 66 WNW 8 13 30.33 1027 10 16 0.00 0.00
2:53 am 02:53 Cloudy 20 -6.7 10 -12.2 65 65 WNW 7 11 30.37 1028 10 16 0.00 0.00
3:05 am 03:05 Cloudy 20 -6.7 10 -12.2 65 65 NW 7 11 30.45 1031 10 16 0.00 0.00
3:39 am 03:39 Cloudy 20 -6.7 9 -12.8 62 62 NNW 8 13 30.45 1031 10 16 0.00 0.00
3:53 am 03:53 Cloudy 20 -6.7 10 -12.2 65 65 NW 10 17 30.40 1029 10 16 0.00 0.00
4:18 am 04:18 Partly Cloudy 18 -7.8 7 -13.9 62 62 NW 14 22 30.48 1032 10 16 0.00 0.00
4:53 am 04:53 Clear 17 -8.3 6 -14.4 62 62 WNW 10 17 30.43 1030 10 16 0.00 0.00
5:53 am 05:53 Clear 15 -9.4 4 -15.6 61 61 NW 8 13 30.46 1031 10 16 0.00 0.00
6:53 am 06:53 Clear 14 -10 3 -16.1 61 61 NNW 9 15 30.47 1032 10 16 0.00 0.00
7:53 am 07:53 Sunny 13 -10.6 3 -16.1 64 64 NNW 6 9 30.50 1033 10 16 0.00 0.00
8:53 am 08:53 Sunny 15 -9.4 3 -16.1 59 59 NW 10 17 30.52 1034 10 16 0.00 0.00
9:53 am 09:53 Sunny 16 -8.9 3 -16.1 56 56 WNW 8 13 30.55 1035 10 16 0.00 0.00
10:53 am 10:53 Sunny 18 -7.8 5 -15 57 57 NW 9 15 30.57 1035 10 16 0.00 0.00
11:53 am 11:53 Mostly Sunny 19 -7.2 5 -15 54 54 VRB 6 9 30.57 1035 10 16 0.00 0.00
12:53 pm 12:53 Sunny 20 -6.7 6 -14.4 55 55 VRB 5 7 30.56 1035 10 16 0.00 0.00
1:53 pm 13:53 Sunny 22 -5.6 5 -15 48 48 W 6 9 30.53 1034 10 16 0.00 0.00
2:53 pm 14:53 Sunny 23 -5 6 -14.4 48 48 W 7 11 30.53 1034 10 16 0.00 0.00
3:53 pm 15:53 Sunny 24 -4.4 6 -14.4 46 46 VRB 3 6 30.51 1033 10 16 0.00 0.00
4:53 pm 16:53 Sunny 23 -5 5 -15 46 46 NW 5 7 30.51 1033 10 16 0.00 0.00
5:53 pm 17:53 Sunny 21 -6.1 5 -15 50 50 W 3 6 30.52 1033 10 16 0.00 0.00
6:53 pm 18:53 Clear 19 -7.2 5 -15 54 54 Calm 30.52 1033 10 16 0.00 0.00
7:53 pm 19:53 Clear 15 -9.4 7 -13.9 70 70 SSW 3 6 30.53 1034 10 16 0.00 0.00
8:53 pm 20:53 Clear 16 -8.9 6 -14.4 65 65 SSW 5 7 30.51 1033 10 16 0.00 0.00
9:53 pm 21:53 Clear 15 -9.4 7 -13.9 70 70 SW 5 7 30.50 1033 10 16 0.00 0.00
10:53 pm 22:53 Clear 16 -8.9 6 -14.4 65 65 Calm 30.50 1033 10 16 0.00 0.00
11:53 pm 23:53 Clear 15 -9.4 6 -14.4 67 67 S 3 6 30.50 1033 10 16 0.00 0.00

Powered by AerisWeather